South Bend, IN

9:25 AM EDT on July 21, 2017 (GMT -0400)
South Bend Regional

Weather History for KSBN - January, 2012

Change the Weather History Date:

Tuesday, January 24, 2012

  Actual Average Record
Temperature  
Mean Temperature 29 °F 24 °F  
Max Temperature 34 °F 31 °F 66 °F (1909)
Min Temperature 23 °F 17 °F -17 °F (1936)
Degree Days  
Heating Degree Days 36 41  
Month to date heating degree days 877 976  
Since 1 July heating degree days 2920 3367  
Cooling Degree Days 0 0  
Month to date cooling degree days 0 0  
Year to date cooling degree days 0 0  
Moisture  
Dew Point 22 °F    
Average Humidity 77    
Maximum Humidity 88    
Minimum Humidity 66    
Precipitation  
Precipitation 0.00 in 0.06 in 0.85 in (1914)
Month to date precipitation 2.49 1.84  
Year to date precipitation 2.49 1.84  
Snow  
Snow 0.00 in 0.70 in 6.70 in (1979)
Month to date snowfall 33.3 15.8  
Since 1 July snowfall 39.0 38.3  
Snow Depth 0.00 in    
Sea Level Pressure  
Sea Level Pressure 30.18 in    
Wind  
Wind Speed 10 mph (West)    
Max Wind Speed 21 mph    
Max Gust Speed 25 mph    
Visibility 10 miles    
Events      
T = Trace of Precipitation, MM = Missing Value Source: NWS Daily Summary

Daily Weather History Graph

Daily Weather History Graph

Search for Another Location

Airport or City:

Trip Planner

Search our weather history database for the weather conditions in past years. The results will help you decide how hot, cold, wet, or windy it might be!

Date:

Astronomy

Jan. 24, 2012 Rise Set
Actual Time 8:04 AM EST 5:50 PM EST
Civil Twilight 7:34 AM EST 6:20 PM EST
Nautical Twilight 7:01 AM EST 6:53 PM EST
Astronomical Twilight 6:28 AM EST 7:26 PM EST
Moon 8:32 AM EST (1/24) 7:43 PM EST (1/24)
Length of Visible Light 10h 45m
Length of Day
9h 45m
New Moon, 2% of the Moon is Illuminated
Jan 24
New Moon
Jan 30
First Quarter
Feb 7
Full
Feb 14
Last Quarter
Feb 21
New

Hourly Weather History & Observations

Time (EST) Temp. Windchill Dew Point Humidity Pressure Visibility Wind Dir Wind Speed Gust Speed Precip Events Conditions
12:54 AM 30.9 °F 21.7 °F 23.0 °F 72% 29.93 in 10.0 mi WSW 11.5 mph - N/A   Overcast
1:54 AM 30.9 °F 19.4 °F 21.9 °F 69% 29.96 in 10.0 mi WSW 17.3 mph - N/A   Overcast
2:54 AM 30.0 °F 19.1 °F 21.9 °F 72% 29.98 in 10.0 mi WSW 15.0 mph - N/A   Overcast
3:54 AM 30.0 °F 20.5 °F 21.9 °F 72% 29.99 in 10.0 mi West 11.5 mph - N/A   Overcast
4:54 AM 30.0 °F 19.1 °F 21.0 °F 69% 30.00 in 10.0 mi WSW 15.0 mph - N/A   Overcast
5:54 AM 30.0 °F 21.1 °F 21.0 °F 69% 30.03 in 10.0 mi WSW 10.4 mph - N/A   Overcast
6:40 AM 30.2 °F 21.3 °F 21.2 °F 69% 30.02 in 10.0 mi WSW 10.4 mph - N/A   Overcast
6:50 AM 30.2 °F 19.8 °F 21.2 °F 69% 30.03 in 10.0 mi West 13.8 mph - N/A   Overcast
6:54 AM 30.0 °F 20.5 °F 21.0 °F 69% 30.06 in 10.0 mi WSW 11.5 mph - N/A   Overcast
7:54 AM 30.0 °F 20.0 °F 21.9 °F 72% 30.10 in 10.0 mi WSW 12.7 mph - N/A   Overcast
8:54 AM 30.0 °F 20.0 °F 21.9 °F 72% 30.13 in 10.0 mi West 12.7 mph 25.3 mph N/A   Overcast
9:54 AM 30.0 °F 18.7 °F 21.9 °F 72% 30.16 in 10.0 mi WSW 16.1 mph - N/A   Overcast
10:54 AM 30.0 °F 19.5 °F 21.9 °F 72% 30.19 in 10.0 mi West 13.8 mph - N/A   Overcast
11:54 AM 30.9 °F 21.2 °F 23.0 °F 72% 30.20 in 10.0 mi West 12.7 mph - N/A   Overcast
12:54 PM 32.0 °F 22.1 °F 23.0 °F 69% 30.20 in 10.0 mi WNW 13.8 mph - N/A   Overcast
1:54 PM 32.0 °F 22.5 °F 23.0 °F 69% 30.21 in 10.0 mi WNW 12.7 mph - N/A   Overcast
2:54 PM 32.0 °F 22.5 °F 23.0 °F 69% 30.23 in 10.0 mi WNW 12.7 mph - N/A   Overcast
3:54 PM 32.0 °F 23.0 °F 23.0 °F 69% 30.27 in 10.0 mi WNW 11.5 mph - N/A   Overcast
4:54 PM 34.0 °F 28.8 °F 24.1 °F 67% 30.29 in 10.0 mi WNW 5.8 mph - N/A   Overcast
5:20 PM 32.0 °F 25.6 °F 23.0 °F 69% 30.27 in 10.0 mi NW 6.9 mph - N/A   Partly Cloudy
5:54 PM 30.0 °F 26.5 °F 23.0 °F 75% 30.30 in 10.0 mi NNW 3.5 mph - N/A   Clear
6:54 PM 28.0 °F - 21.9 °F 78% 30.32 in 10.0 mi Calm Calm - N/A   Clear
7:54 PM 24.1 °F - 19.9 °F 84% 30.34 in 9.0 mi Calm Calm - N/A   Clear
8:54 PM 25.0 °F - 21.0 °F 85% 30.35 in 8.0 mi Calm Calm - N/A   Clear
9:23 PM 26.6 °F - 21.2 °F 80% 30.33 in 8.0 mi Calm Calm - N/A   Mostly Cloudy
9:54 PM 27.0 °F 23.0 °F 23.0 °F 85% 30.38 in 8.0 mi South 3.5 mph - N/A   Overcast
10:54 PM 30.0 °F 26.5 °F 24.1 °F 79% 30.34 in 8.0 mi East 3.5 mph - N/A   Overcast
11:54 PM 28.4 °F 23.3 °F 24.8 °F 86% 30.32 in 8.0 mi South 4.6 mph - N/A   Overcast